Regional Weather Roundup
Issued by NWS

Home | Current Version | Previous Version | Text Only | Print | Product List | Glossary Off
Versions: 1 2 3 4 5 6 7 8 9 10 11 12 13 14 15 16 17 18 19 20 21 22 23 24 25 26 27 28 29 30 31 32 33 34 35 36 37 38 39 40 41 42 43 44 45 46 47 48 49 50

000
ASUS46 KLOX 030202
RWRCA

SOUTHERN CALIFORNIA WEATHER ROUNDUP
NATIONAL WEATHER SERVICE OXNARD CALIFORNIA
600 PM PST MON MAR 02 2015

NOTE: "FAIR" INDICATES FEW OR NO CLOUDS BELOW 12,000 FEET WITH NO
SIGNIFICANT WEATHER AND/OR OBSTRUCTIONS TO VISIBILITY.

  -  STATIONS PRECEEDED BY AN ASTERISK (*) ARE NOT NWS OR FAA
     STATIONS AND ARE NOT SUBJECT TO NWS AND FAA QUALITY CONTROL.

CAZ041-042-087-030300-
LA AND ORANGE COUNTY COASTAL AREAS


CITY           SKY/WX    TMP DP  RH WIND       PRES   REMARKS
L.A. DOWNTOWN  PTCLDY    57  44  62 CALM      29.93R
L.A. AIRPORT   PTCLDY    56  45  66 S6        29.93R
LONG BEACH     PTCLDY    57  47  69 S8        29.94R

CITY           SKY/WX    TMP DP  RH WIND       PRES   REMARKS
AVALON           N/A     55 N/A N/A MISG        N/A
FULLERTON      PTCLDY    57  44  62 S9        29.93R
HAWTHORNE      PTCLDY    58  44  60 S7        29.94R
*LEO CARRILLO    N/A     56  45  66 S3          N/A
*LOS ALAMITOS  FAIR      55  47  75 S6        29.94R
*REDONDO BEACH   N/A     57  45  64 CALM      29.94R
SANTA ANA      PTCLDY    59  44  57 S7        29.94R
STA MONICA APT PTCLDY    58  44  60 S6        29.93R
*UCLA            N/A     55  43  62 S6        29.90S

$$

CAZ547-548-048-030300-
LA COUNTY VALLEYS AND INLAND EMPIRE


CITY           SKY/WX    TMP DP  RH WIND       PRES   REMARKS
BURBANK        PTCLDY    54  43  66 SW7       29.92R
VAN NUYS       MOCLDY    51  45  79 NW3       29.92R

CITY           SKY/WX    TMP DP  RH WIND       PRES   REMARKS
CORONA AIRPORT PTCLDY    54  40  59 CALM      29.93R
CHINO          MOCLDY    56  42  59 SE5       29.94R
MARCH AFB      CLOUDY    50  44  79 E6        29.92S
*NORTHRIDGE      N/A     50  45  81 NW1         N/A
ONTARIO        MOCLDY    53  41  63 SE5       29.93R
*PASADENA        N/A     55  45  67 E5          N/A
POMONA           N/A     52  39  62 SW6         N/A
RIVERSIDE      CLOUDY    53  43  68 SE9       29.93R
SAN BERNARDINO NOT AVBL
*SAN RAFAEL HI   N/A     49  42  76 S8          N/A
*SAUGUS          N/A     46  45  96 S5          N/A
*WHITEMAN AP   NOT AVBL
*WHITTIER HILL   N/A     51  44  77 S5          N/A
*WOODLAND HILL   N/A     52  45  76 VRB2        N/A

$$

CAZ054-055-030300-
LA AND SAN BERNARDINO COUNTY MOUNTAINS


CITY           SKY/WX    TMP DP  RH WIND       PRES   REMARKS
*BIG BEAR AIRP PTCLDY    28  21  74 W8        29.87R WCI  20
*BIG PINES       N/A     26  24  90 S2          N/A
MT WILSON NWS    N/A     32  34 100 MISG        N/A
SANDBERG       LGT RAIN  38  35  89 S15       29.87R VSB<1/4 WCI  29

$$

CAZ028-029-059-060-099-030300-
ANTELOPE VALLEY AND SURROUNDING AREAS


CITY           SKY/WX    TMP DP  RH WIND       PRES   REMARKS
LANCASTER      CLOUDY    46  36  68 SW14      29.90R
PALMDALE       MOCLDY    46  36  68 W9        29.89R
*POPPY PARK      N/A     43  38  81 S13G28      N/A

CITY           SKY/WX    TMP DP  RH WIND       PRES   REMARKS
29 PALMS       CLEAR     50  36  58 SW12      29.93R
BARSTOW/DAGGET CLEAR     55  30  38 SW18      29.85R
BISHOP         MOCLDY    45  23  42 SE5       29.80R
CHINA LAKE     MOCLDY    51  30  44 S10       29.81R
EDWARDS AFB    MOCLDY    48  36  63 SW15      29.86R
MOJAVE         CLOUDY    46  37  71 SW16      29.88R
NEEDLES        PTCLDY    59  40  49 SW12      29.87R
VICTORVILLE    PTCLDY    45  34  65 S17       29.87R

$$

CAZ039-040-030300-
VENTURA AND SANTA BARBARA COUNTY COAST


CITY           SKY/WX    TMP DP  RH WIND       PRES   REMARKS
CAMARILLO      PTCLDY    56  47  71 SW5       29.92R
OXNARD AIRPORT PTCLDY    58  44  60 S5        29.92R
*POINT MUGU    PTCLDY    58  47  66 SW6       29.93R
SBA APT/GOLETA MOCLDY    55  46  71 SE3       29.90R
*SANTA BARBARA   N/A     57  44  61 CALM      29.99R
*VENTURA         N/A     57  40  52 CALM      29.96S

$$

CAZ044-045-030300-
VENTURA COUNTY VALLEYS


CITY           SKY/WX    TMP DP  RH WIND       PRES   REMARKS
*SIMI VALLEY     N/A     49  47  91 CALM      29.93R
*OJAI            N/A     50  45  83 CALM      29.89R
*FILLMORE        N/A     54  49  84 CALM      29.83R

$$

CAZ053-030300-
VENTURA COUNTY MOUNTAINS


CITY           SKY/WX    TMP DP  RH WIND       PRES   REMARKS
*LOCKWOOD VLY    N/A     34  32  93 MISG        N/A
*ROSE VALLEY     N/A     43  41  93 MISG        N/A

$$

CAZ034-035-036-030300-
CENTRAL COAST AND SANTA YNEZ VALLEY


CITY           SKY/WX    TMP DP  RH WIND       PRES   REMARKS
SAN LUIS OBISP PTCLDY    53  45  74 CALM      29.88R
SANTA MARIA    MOCLDY    54  45  71 S5        29.89R

CITY           SKY/WX    TMP DP  RH WIND       PRES   REMARKS
*CAL POLY SLO    N/A     57  46  67 S3G10       N/A
*LOMPOC        MOCLDY    55  45  67 SE6       29.90R
*PISMO BEACH     N/A     55  50  83 S3        29.89R
*SANTA YNEZ    FAIR      50  43  76 CALM      29.89S

$$

CAZ037-038-051-030300-
SAN LUIS OBISPO COUNTY INTERIOR AND CUYAMA VALLEY


CITY           SKY/WX    TMP DP  RH WIND       PRES   REMARKS
*CUYAMA          N/A     49  39  69 CALM      29.87R
PASO ROBLES    PTCLDY    54  42  64 SW7       29.87R

$$

CAZ032-033-061-030300-
SOUTHERN DESERTS


CITY           SKY/WX    TMP DP  RH WIND       PRES   REMARKS
BLYTHE         CLEAR     58  44  60 SW7       29.91R
IMPERIAL       PTCLDY    57  46  66 NW6       29.92R
PALM SPRINGS   PTCLDY    56  43  61 VRB5      29.91R
THERMAL        CLEAR     58  43  57 NW3       29.89R

$$

ELSEWHERE ACROSS THE WESTERN UNITED STATES AND MEXICO


CITY           SKY/WX    TMP DP  RH WIND       PRES   REMARKS
DENVER, CO     MOCLDY    29  22  75 SW3       29.56F HAZE
GRAND CANYON,  CLOUDY    30  29  96 SW7       29.89R WCI  23
HONOLULU, HI   MOSUNNY   84  63  49 NE14      29.96R
KAHULUI, MAUI  MOSUNNY   81  68  64 N26       29.96F
LAKE TAHOE, CA CLOUDY    35  24  64 S5        29.82R WCI  31
LAS VEGAS, NV  MOCLDY    54  37  52 W10G22    29.81R
MAMMOTH LAKES, MOCLDY    32  27  80 SE7       29.80R WCI  26
MEXICO CITY, M CLEAR     70  36  28 SE6       30.28R
PHOENIX, AZ    MOCLDY    54  48  80 SE8       29.96R
PORTLAND, OR   PTCLDY    51  33  50 NW16G23   30.00R
RENO, NV       MOCLDY    43  29  57 W6        29.82R
SALT LAKE CITY LGT RAIN  34  33  96 W13       29.63R FOG     WCI  25
SAN DIEGO, CA  MOCLDY    58  43  57 CALM      29.96S
SAN FRANCISCO, PTCLDY    57  44  62 NE3       29.85R
SAN JOSE, CA   PTCLDY    54  45  71 CALM      29.85R
SEATTLE, WA    PTCLDY    48  28  46 N13       30.06R
TIJUANA, MEX   MOCLDY    55  41  58 SW6       29.98R

$$

STATION/POSITION TIME  TEMP    WIND        PRES    VSBY  WAVE
                       AIR SEA DIR/SP/G                  HT/PER
                 (UTC) (F)     (DEG/KT/KT) (MB)    (MI)  (FT/S)
POINT ARGUELLO B NOT AVBL
WEST SANTA BARBA 0100   56 60  140/  4/  4 1011.7R         4/10
POINT CONCEPTION NOT AVBL
EAST SANTA BARBA NOT AVBL
SANTA MONICA BAY 0200   57 62  250/  4/  6 1013.5R         2/12



USA.gov is the U.S. government's official web portal to all federal, state and local government web resources and services.